Location: Ravensburg
(48.5621°N, 13.4088°E)
Time: 06:42:02
(UTC+01:00)

Amateur Radio Satellites - All Passes

Search period start: 19 January 2018 06:12
Search period end: 20 January 2018 06:12
Location: Ravensburg, 48.5621°N, 13.4088°E

Satellite Date Start Highest point End Downlink Frequencies (MHz)
Time Altitude Azimuth
HO-68 19 Jan 06:14:34 06:20:43 30° 93° (E) 06:26:50 435.675
RS-15 19 Jan 06:32:03 06:39:04 18° 95° (E) 06:46:01 29.354- 29.394
M-CUBED/EXP-1 PRIME 19 Jan 06:35:17 06:37:27 16° 305° (NW) 06:39:34 437.505
DOVE 4 19 Jan 06:37:59 06:40:28 15° 300° (WNW) 06:43:00 437.250
FO-29 19 Jan 06:42:23 06:48:56 52° 68° (ENE) 06:54:46 435.910
XW-2F 19 Jan 06:42:27 06:46:09 60° 287° (WNW) 06:49:49 145.980 - 146.000
SO-50 19 Jan 06:43:46 06:48:14 83° 307° (NW) 06:52:50 436.795
KAITUO 1B 19 Jan 06:44:53 06:48:37 73° 285° (WNW) 06:52:16 145.475/437.950
CUTE-I 19 Jan 06:49:56 06:55:18 85° 287° (WNW) 07:00:38 437.470
XW-2D 19 Jan 06:50:08 06:53:45 44° 289° (WNW) 06:57:19 145.860 - 145.880
NUDT-PHONESAT 19 Jan 07:00:23 07:03:59 51° 288° (WNW) 07:07:32 437.300
AAUSAT CUBESAT 2 19 Jan 07:00:28 07:03:15 17° 91° (E) 07:06:02 437.432
STRAND 1 19 Jan 07:02:16 07:07:17 57° 259° (W) 07:12:19 437.568
CUBEBUG 2 19 Jan 07:06:01 07:10:39 49° 99° (E) 07:15:16 437.445
XW-2B 19 Jan 07:07:52 07:11:12 30° 292° (WNW) 07:14:31 145.730 - 145.750
SEEDS 19 Jan 07:10:43 07:14:46 49° 99° (E) 07:18:48 437.485
UWE-3 19 Jan 07:16:30 07:20:51 37° 96° (E) 07:25:09 435.000/436.395/437.385
CUTE 1.7 + AOD 2 19 Jan 07:18:32 07:22:47 85° 284° (WNW) 07:26:59 437.475
UNISAT 6 19 Jan 07:21:01 07:23:08 13° 56° (NE) 07:25:16 437.425
FALCONSAT 3 19 Jan 07:21:14 07:22:06 11° 182° (S) 07:22:57 435.103
AO-7 19 Jan 07:30:47 07:33:59 13° 331° (NNW) 07:37:12 .
LilacSat-2 19 Jan 07:33:30 07:35:57 17° 297° (WNW) 07:38:22 437.200
XW-2C 19 Jan 07:38:52 07:41:10 16° 298° (WNW) 07:43:27 145.795 - 145.815
ZACube-1 19 Jan 07:45:31 07:49:49 38° 96° (E) 07:54:03 437.345
AO-73 19 Jan 07:53:45 07:58:05 40° 97° (E) 08:02:20 145.935
XW-2A 19 Jan 07:56:55 08:00:15 56° 100° (E) 08:03:33 145.665 - 145.685
HO-68 19 Jan 08:01:51 08:08:55 64° 293° (WNW) 08:15:58 435.675
PRISM 19 Jan 08:16:51 08:17:34 10° 56° (NE) 08:18:18 437.425
SO-50 19 Jan 08:26:00 08:29:24 20° 331° (NNW) 08:32:51 436.795
FO-29 19 Jan 08:28:08 08:34:12 33° 265° (W) 08:39:41 435.910
Oscar 11 19 Jan 08:29:36 08:33:54 57° 100° (E) 08:38:09 .
CUTE-I 19 Jan 08:31:27 08:34:35 16° 306° (NW) 08:37:44 437.470
AAUSAT CUBESAT 2 19 Jan 08:35:01 08:38:59 49° 288° (WNW) 08:42:56 437.432
RS-15 19 Jan 08:36:58 08:49:03 65° 118° (ESE) 09:00:55 29.354- 29.394
TIGRISAT 19 Jan 08:40:06 08:44:26 60° 72° (ENE) 08:48:56 435.000
CUBEBUG 2 19 Jan 08:43:10 08:46:58 24° 297° (WNW) 08:50:46 437.445
SEEDS 19 Jan 08:47:08 08:50:07 19° 298° (WNW) 08:53:07 437.485
YUBILEINY 19 Jan 08:50:51 08:58:19 30° 62° (ENE) 09:05:42 435.215
UWE-3 19 Jan 08:53:07 08:57:12 30° 294° (WNW) 09:01:15 435.000/436.395/437.385
UNISAT 6 19 Jan 08:54:41 08:59:06 89° 89° (E) 09:03:42 437.425
CUTE 1.7 + AOD 2 19 Jan 08:56:32 08:57:54 11° 303° (WNW) 08:59:18 437.475
Max Valier Satellite 19 Jan 09:06:36 09:09:15 18° 92° (E) 09:11:52 145.860
O/OREOS (USA 219) 19 Jan 09:13:41 09:17:17 23° 50° (NE) 09:20:53 437.305
BEESAT 3 19 Jan 09:17:02 09:18:47 13° 110° (ESE) 09:20:32 437.485
ZACube-1 19 Jan 09:22:03 09:25:57 28° 295° (WNW) 09:29:49 437.345
AO-73 19 Jan 09:30:18 09:34:07 26° 296° (WNW) 09:37:52 145.935
EO-88 19 Jan 09:30:33 09:33:28 22° 94° (E) 09:36:20 145.990 - 145.960
XW-2A 19 Jan 09:31:08 09:32:30 12° 299° (WNW) 09:33:51 145.665 - 145.685
DELFI C3 19 Jan 09:32:46 09:36:37 53° 100° (E) 09:40:27 145.870
POLYITAN 1 19 Jan 09:46:13 09:48:32 14° 58° (ENE) 09:50:50 437.675
PRISM 19 Jan 09:48:04 09:52:08 81° 74° (ENE) 09:56:13 437.425
HO-68 19 Jan 09:51:05 09:55:22 17° 315° (NW) 09:59:38 435.675
PCSat 19 Jan 09:51:33 09:56:19 32° 112° (ESE) 10:01:07 145.827
AIST 2D 19 Jan 09:52:54 09:56:09 36° 71° (ENE) 09:59:26 435.315
NANOSAT C BR1 19 Jan 10:03:17 10:06:11 18° 61° (ENE) 10:09:04 145.865
Oscar 11 19 Jan 10:06:40 10:09:38 18° 299° (WNW) 10:12:34 .
SO-50 19 Jan 10:10:19 10:11:38 11° 356° (N) 10:12:56 436.795
QB50P2 19 Jan 10:14:08 10:17:43 28° 65° (ENE) 10:21:22 145.880/145.840
TIGRISAT 19 Jan 10:18:39 10:21:33 17° 271° (W) 10:24:31 435.000
ESTCUBE 1 19 Jan 10:24:51 10:26:55 13° 88° (E) 10:28:58 437.505/2401.250
UNISAT 6 19 Jan 10:35:09 10:36:32 11° 274° (W) 10:37:55 437.425
Max Valier Satellite 19 Jan 10:39:44 10:43:13 38° 290° (WNW) 10:46:39 145.860
EO-79 19 Jan 10:45:16 10:49:20 49° 71° (ENE) 10:53:28 145.935-145.965
DUCHIFAT 1 19 Jan 10:46:59 10:50:55 39° 69° (ENE) 10:54:53 145.980
YUBILEINY 19 Jan 10:47:19 10:56:03 75° 265° (W) 11:04:41 435.215
RS-15 19 Jan 10:49:59 11:02:03 56° 324° (NW) 11:13:49 29.354- 29.394
BEESAT 3 19 Jan 10:51:43 10:55:43 82° 309° (NW) 10:59:43 437.485
O/OREOS (USA 219) 19 Jan 10:52:38 10:56:59 52° 250° (WSW) 11:01:20 437.305
LO-87 19 Jan 10:56:33 10:59:47 29° 96° (E) 11:03:00 145.935 - 145.965
Oscar 19 19 Jan 10:59:18 11:02:06 15° 54° (NE) 11:04:53 437.125/150
EO-88 19 Jan 11:03:54 11:07:08 30° 292° (WNW) 11:10:20 145.990 - 145.960
DELFI C3 19 Jan 11:08:29 11:10:58 16° 298° (WNW) 11:13:27 145.870
AO-7 19 Jan 11:09:14 11:11:45 12° 27° (NNE) 11:14:17 .
POLYITAN 1 19 Jan 11:19:30 11:23:44 76° 258° (WSW) 11:28:02 437.675
PRISM 19 Jan 11:26:57 11:27:56 11° 272° (W) 11:28:56 437.425
AIST 2D 19 Jan 11:27:02 11:29:27 17° 268° (W) 11:31:52 435.315
PCSat 19 Jan 11:34:17 11:39:32 49° 312° (NW) 11:44:50 145.827
BEESAT 2 19 Jan 11:34:19 11:38:20 78° 127° (SE) 11:42:25 435.950
NANOSAT C BR1 19 Jan 11:37:21 11:41:28 55° 259° (W) 11:45:40 145.865
QB50P2 19 Jan 11:49:33 11:53:24 34° 263° (W) 11:57:19 145.880/145.840
SO-50 19 Jan 11:51:17 11:54:03 15° 21° (NNE) 11:56:50 436.795
AO-85 19 Jan 11:51:19 11:54:11 19° 112° (ESE) 11:57:12 145.980
BUGSAT 1 19 Jan 11:56:41 12:00:38 51° 71° (ENE) 12:04:40 437.445
ESTCUBE 1 19 Jan 11:59:47 12:04:18 79° 286° (WNW) 12:08:46 437.505/2401.250
Gurwin Techsat 1B 19 Jan 12:05:07 12:09:55 36° 64° (ENE) 12:14:44 435.225
VELOX 1 19 Jan 12:09:16 12:12:33 20° 92° (E) 12:15:50 145.980
SPROUT 19 Jan 12:21:59 12:26:09 47° 99° (E) 12:30:17 437.525
EO-79 19 Jan 12:22:22 12:25:22 19° 269° (W) 12:28:24 145.935-145.965
DUCHIFAT 1 19 Jan 12:23:22 12:26:43 23° 267° (W) 12:30:06 145.980
AO-91 19 Jan 12:29:54 12:33:14 66° 74° (ENE) 12:36:42 145.960
LO-87 19 Jan 12:30:08 12:33:04 23° 294° (WNW) 12:35:59 145.935 - 145.965
BEESAT 3 19 Jan 12:31:08 12:33:50 17° 329° (NNW) 12:36:34 437.485
Oscar 19 19 Jan 12:35:25 12:40:36 80° 72° (ENE) 12:45:50 437.125/150
YUBILEINY 19 Jan 12:46:09 12:51:15 17° 287° (WNW) 12:56:21 435.215
AO-7 19 Jan 12:54:48 13:02:01 34° 52° (NE) 13:09:15 .
RS-15 19 Jan 13:06:45 13:17:45 36° 357° (N) 13:28:20 29.354- 29.394
BEESAT 2 19 Jan 13:13:28 13:16:32 20° 327° (NNW) 13:19:37 435.950
50 SAT 19 Jan 13:16:50 13:18:34 14° 92° (E) 13:20:18 437.505
PCSat 19 Jan 13:20:54 13:24:15 16° 335° (NNW) 13:27:37 145.827
AO-85 19 Jan 13:30:08 13:34:08 57° 313° (NW) 13:38:28 145.980
SO-50 19 Jan 13:31:07 13:35:38 45° 43° (NE) 13:40:12 436.795
BUGSAT 1 19 Jan 13:33:36 13:36:17 17° 269° (W) 13:39:02 437.445
ESTCUBE 1 19 Jan 13:38:43 13:40:20 12° 305° (NW) 13:41:57 437.505/2401.250
ITAMSAT 1 19 Jan 13:38:44 13:42:38 22° 58° (ENE) 13:46:31 435.822/435.867
Gurwin Techsat 1B 19 Jan 13:44:56 13:49:50 37° 263° (W) 13:54:46 435.225
VELOX 1 19 Jan 13:45:01 13:49:15 48° 290° (WNW) 13:53:28 145.980
SPROUT 19 Jan 13:58:29 14:01:44 21° 297° (WNW) 14:05:00 437.525
UKube-1 19 Jan 14:00:03 14:04:00 34° 97° (E) 14:07:54 .
DX 1 19 Jan 14:07:21 14:11:41 64° 103° (ESE) 14:15:59 434.975-435.025
M-CUBED/EXP-1 PRIME 19 Jan 14:15:41 14:18:20 16° 55° (NE) 14:20:53 437.505
Oscar 19 19 Jan 14:17:23 14:20:33 16° 272° (W) 14:23:43 437.125/150
ITUPSAT 1 19 Jan 14:31:43 14:34:20 14° 88° (E) 14:36:57 437.325
DOVE 4 19 Jan 14:33:11 14:35:16 13° 59° (ENE) 14:37:20 437.250
AO-7 19 Jan 14:45:51 14:54:12 73° 253° (WSW) 15:02:37 .
50 SAT 19 Jan 14:47:33 14:50:26 34° 290° (WNW) 14:53:18 437.505
PCSat 19 Jan 15:08:52 15:10:06 11° 2° (N) 15:11:18 145.827
BEESAT 19 Jan 15:11:31 15:15:53 33° 96° (E) 15:20:12 436.000
SO-50 19 Jan 15:11:49 15:15:59 32° 242° (WSW) 15:20:12 436.795
AO-85 19 Jan 15:12:53 15:15:32 16° 337° (NNW) 15:18:19 145.980
ITAMSAT 1 19 Jan 15:16:31 15:21:40 64° 258° (WSW) 15:26:49 435.822/435.867
CUBESAT XI-V 19 Jan 15:18:38 15:21:59 19° 91° (E) 15:25:18 437.345
MOZHAYETS 4 19 Jan 15:20:01 15:24:40 68° 102° (ESE) 15:29:16
RS-15 19 Jan 15:22:08 15:33:42 49° 30° (NNE) 15:44:40 29.354- 29.394
UKube-1 19 Jan 15:36:13 15:39:55 28° 295° (WNW) 15:43:36 .
DX 1 19 Jan 15:44:35 15:47:23 17° 301° (WNW) 15:50:12 434.975-435.025
M-CUBED/EXP-1 PRIME 19 Jan 15:47:58 15:52:20 70° 252° (WSW) 15:56:24 437.505
XW-2F 19 Jan 15:54:53 15:56:20 12° 59° (ENE) 15:57:47 145.980 - 146.000
XW-2D 19 Jan 16:01:54 16:04:13 16° 62° (ENE) 16:06:31 145.860 - 145.880
ITUPSAT 1 19 Jan 16:07:55 16:12:45 79° 286° (WNW) 16:17:34 437.325
DOVE 4 19 Jan 16:08:09 16:12:28 76° 258° (WSW) 16:16:39 437.250
NUDT-PHONESAT 19 Jan 16:10:52 16:12:31 13° 60° (ENE) 16:14:10 437.300
XW-2B 19 Jan 16:18:40 16:21:37 21° 65° (ENE) 16:24:34 145.730 - 145.750
CUTE-I 19 Jan 16:36:21 16:41:10 36° 65° (ENE) 16:46:00 437.470
CUTE 1.7 + AOD 2 19 Jan 16:41:02 16:43:16 14° 59° (ENE) 16:45:31 437.475
LilacSat-2 19 Jan 16:43:22 16:47:00 41° 71° (ENE) 16:50:40 437.200
AO-7 19 Jan 16:43:27 16:48:26 17° 274° (W) 16:53:28 .
HO-68 19 Jan 16:47:23 16:53:39 35° 58° (ENE) 16:59:58 435.675
XW-2C 19 Jan 16:48:02 16:51:40 43° 71° (ENE) 16:55:19 145.795 - 145.815
BEESAT 19 Jan 16:49:18 16:53:38 34° 295° (WNW) 16:57:57 436.000
PCSat 19 Jan 16:52:03 16:55:49 18° 28° (NNE) 16:59:34 145.827
CUBESAT XI-V 19 Jan 16:55:09 16:59:41 54° 289° (WNW) 17:04:10 437.345
AO-85 19 Jan 16:57:01 16:57:54 10° 2° (N) 16:58:48 145.980
MOZHAYETS 4 19 Jan 16:58:14 17:01:19 18° 301° (WNW) 17:04:22
KKS-1 19 Jan 17:02:59 17:06:58 31° 96° (E) 17:10:56 437.445
NO-84 19 Jan 17:15:38 17:17:36 16° 134° (SE) 17:19:30 435.350 FM
STARS 19 Jan 17:24:36 17:28:04 22° 93° (E) 17:31:30 437.465
XW-2F 19 Jan 17:26:04 17:29:52 76° 256° (WSW) 17:33:42 145.980 - 146.000
KAITUO 1B 19 Jan 17:27:38 17:31:25 87° 69° (ENE) 17:35:11 145.475/437.950
BEESAT 3 19 Jan 17:27:39 17:31:09 30° 40° (NE) 17:34:38 437.485
XW-2D 19 Jan 17:34:12 17:37:58 54° 260° (W) 17:41:45 145.860 - 145.880
RS-15 19 Jan 17:35:19 17:47:04 74° 238° (WSW) 17:58:10 29.354- 29.394
NUDT-PHONESAT 19 Jan 17:42:07 17:45:50 68° 257° (WSW) 17:49:34 437.300
ITUPSAT 1 19 Jan 17:47:33 17:49:48 13° 306° (NW) 17:52:02 437.325
XW-2B 19 Jan 17:52:02 17:55:35 36° 263° (W) 17:59:09 145.730 - 145.750
AAUSAT CUBESAT 2 19 Jan 17:54:01 17:57:02 20° 63° (ENE) 18:00:03 437.432
Oscar 11 19 Jan 17:56:24 17:56:34 10° 55° (NE) 17:56:43 .
SEEDS 19 Jan 18:05:27 18:09:34 54° 72° (ENE) 18:13:42 437.485
CUBEBUG 2 19 Jan 18:07:24 18:11:43 60° 72° (ENE) 18:16:12 437.445
BEESAT 2 19 Jan 18:11:04 18:14:30 26° 37° (NE) 18:17:55 435.950
CUTE 1.7 + AOD 2 19 Jan 18:14:15 18:18:32 77° 259° (WSW) 18:22:49 437.475
CUTE-I 19 Jan 18:16:18 18:21:12 37° 263° (W) 18:26:07 437.470
UWE-3 19 Jan 18:16:42 18:20:55 44° 69° (ENE) 18:25:16 435.000/436.395/437.385
LilacSat-2 19 Jan 18:18:43 18:21:28 18° 268° (W) 18:24:13 437.200
XW-2C 19 Jan 18:23:25 18:26:02 18° 268° (W) 18:28:41 145.795 - 145.815
XW-2A 19 Jan 18:31:07 18:34:14 33° 70° (ENE) 18:37:22 145.665 - 145.685
HO-68 19 Jan 18:34:02 18:41:04 60° 258° (WSW) 18:48:10 435.675
PCSat 19 Jan 18:34:54 18:40:19 62° 51° (NE) 18:45:41 145.827
AO-85 19 Jan 18:36:56 18:40:11 18° 27° (NNE) 18:43:35 145.980
KKS-1 19 Jan 18:39:32 18:43:30 32° 294° (WNW) 18:47:27 437.445
ZACube-1 19 Jan 18:44:25 18:48:41 46° 69° (ENE) 18:53:02 437.345
NO-84 19 Jan 18:51:31 18:54:28 70° 331° (NNW) 18:57:19 435.350 FM
AO-73 19 Jan 18:52:17 18:56:33 48° 70° (ENE) 19:00:57 145.935
STARS 19 Jan 19:00:23 19:04:36 45° 291° (WNW) 19:08:48 437.465
BEESAT 3 19 Jan 19:05:06 19:08:46 38° 240° (WSW) 19:12:22 437.485
STRAND 1 19 Jan 19:08:46 19:13:32 37° 97° (E) 19:18:16 437.568
Oscar 11 19 Jan 19:27:32 19:31:52 70° 74° (ENE) 19:36:13 .
AAUSAT CUBESAT 2 19 Jan 19:28:12 19:32:11 46° 261° (W) 19:36:12 437.432
FO-29 19 Jan 19:32:53 19:37:16 26° 93° (E) 19:41:36 435.910
SEEDS 19 Jan 19:42:48 19:45:34 17° 270° (W) 19:48:21 437.485
CUBEBUG 2 19 Jan 19:45:56 19:48:47 17° 272° (W) 19:51:40 437.445
BEESAT 2 19 Jan 19:48:32 19:52:27 50° 238° (WSW) 19:56:17 435.950
Max Valier Satellite 19 Jan 19:49:13 19:51:33 16° 62° (ENE) 19:53:53 145.860
RS-15 19 Jan 19:49:38 19:57:15 21° 263° (W) 20:04:40 29.354- 29.394
UWE-3 19 Jan 19:54:03 19:57:34 23° 268° (W) 20:01:12 435.000/436.395/437.385
XW-2A 19 Jan 20:04:37 20:07:02 18° 268° (W) 20:09:26 145.665 - 145.685
EO-88 19 Jan 20:11:51 20:14:24 18° 64° (ENE) 20:16:58 145.990 - 145.960
AO-85 19 Jan 20:16:43 20:21:31 60° 47° (NE) 20:26:38 145.980
PCSat 19 Jan 20:18:57 20:23:19 25° 251° (WSW) 20:27:39 145.827
DELFI C3 19 Jan 20:21:06 20:24:52 49° 72° (ENE) 20:28:40 145.870
ZACube-1 19 Jan 20:21:40 20:25:10 22° 268° (W) 20:28:44 437.345
HO-68 19 Jan 20:28:25 20:30:21 11° 278° (W) 20:32:17 435.675
NO-84 19 Jan 20:29:35 20:31:58 23° 352° (N) 20:34:20 435.350 FM
AO-73 19 Jan 20:29:39 20:33:02 21° 269° (W) 20:36:31 145.935
TIGRISAT 19 Jan 20:30:17 20:31:12 10° 85° (E) 20:32:07 435.000
UNISAT 6 19 Jan 20:43:26 20:46:19 16° 89° (E) 20:49:11 437.425
STRAND 1 19 Jan 20:48:03 20:52:41 35° 295° (WNW) 20:57:18 437.568
Oscar 11 19 Jan 21:06:10 21:08:29 14° 272° (W) 21:10:48 .
FO-29 19 Jan 21:17:40 21:22:42 45° 293° (WNW) 21:27:36 435.910
Max Valier Satellite 19 Jan 21:21:21 21:24:58 50° 260° (W) 21:28:39 145.860
ESTCUBE 1 19 Jan 21:27:23 21:30:41 20° 61° (ENE) 21:34:00 437.505/2401.250
LO-87 19 Jan 21:36:06 21:38:54 22° 66° (ENE) 21:41:43 145.935 - 145.965
nSIGHT-1 19 Jan 21:40:56 21:43:56 40° 148° (SSE) 21:46:56 .
EO-88 19 Jan 21:44:18 21:47:46 40° 262° (W) 21:51:14 145.990 - 145.960
ISS 19 Jan 21:47:28 21:50:28 34° 146° (SE) 21:53:29 437.550
DELFI C3 19 Jan 21:57:26 21:59:54 16° 270° (W) 22:02:21 145.870
AO-85 19 Jan 21:57:37 22:01:42 26° 245° (WSW) 22:05:58 145.980
YUBILEINY 19 Jan 21:57:56 22:05:03 28° 80° (E) 22:12:07 435.215
TIGRISAT 19 Jan 22:03:53 22:08:38 80° 104° (ESE) 22:13:20 435.000
NO-84 19 Jan 22:07:16 22:09:43 26° 13° (NNE) 22:12:12 435.350 FM
UNISAT 6 19 Jan 22:18:48 22:23:30 70° 287° (WNW) 22:28:10 437.425
AIST 2D 19 Jan 22:46:50 22:49:49 25° 95° (E) 22:52:45 435.315
PRISM 19 Jan 23:00:22 23:04:27 77° 102° (ESE) 23:08:32 437.425
POLYITAN 1 19 Jan 23:01:43 23:04:00 14° 89° (E) 23:06:15 437.675
ESTCUBE 1 19 Jan 23:02:40 23:07:07 56° 259° (W) 23:11:35 437.505/2401.250
LO-87 19 Jan 23:08:58 23:12:09 30° 264° (W) 23:15:22 145.935 - 145.965
VELOX 1 19 Jan 23:09:45 23:13:32 29° 65° (ENE) 23:17:20 145.980
nSIGHT-1 19 Jan 23:16:55 23:20:03 57° 347° (NNW) 23:23:11 .
NANOSAT C BR1 19 Jan 23:18:20 23:21:18 18° 91° (E) 23:24:15 145.865
SPROUT 19 Jan 23:18:24 23:22:34 57° 72° (ENE) 23:26:46 437.525
ISS 19 Jan 23:23:35 23:26:50 63° 345° (NNW) 23:30:06 437.550
QB50P2 19 Jan 23:30:09 23:33:55 29° 95° (E) 23:37:41 145.880/145.840
DX 1 19 Jan 23:33:03 23:34:57 13° 56° (NE) 23:36:50 434.975-435.025
O/OREOS (USA 219) 19 Jan 23:33:03 23:34:07 11° 97° (E) 23:35:11 437.305
TIGRISAT 19 Jan 23:41:53 23:44:43 16° 302° (WNW) 23:47:32 435.000
NO-84 19 Jan 23:44:16 23:47:06 78° 213° (SSW) 23:50:01 435.350 FM
YUBILEINY 19 Jan 23:52:11 00:01:01 75° 282° (WNW) 00:09:52 435.215
UNISAT 6 19 Jan 23:57:51 23:59:21 11° 306° (NW) 00:00:50 437.425
EO-79 20 Jan 00:01:22 00:05:35 54° 100° (E) 00:09:46 145.935-145.965
DUCHIFAT 1 20 Jan 00:02:12 00:06:16 42° 98° (E) 00:10:18 145.980
AO-91 20 Jan 00:16:10 00:17:46 12° 89° (E) 00:19:24 145.960
AIST 2D 20 Jan 00:20:03 00:22:54 24° 293° (WNW) 00:25:43 435.315
POLYITAN 1 20 Jan 00:35:57 00:40:14 69° 287° (WNW) 00:44:29 437.675
PRISM 20 Jan 00:37:13 00:39:10 13° 302° (WNW) 00:41:07 437.425
Oscar 19 20 Jan 00:43:52 00:47:43 21° 91° (E) 00:51:33 437.125/150
VELOX 1 20 Jan 00:45:55 00:49:54 34° 263° (W) 00:53:54 145.980
MOZHAYETS 4 20 Jan 00:50:38 00:53:17 15° 57° (ENE) 00:55:56
NANOSAT C BR1 20 Jan 00:53:08 00:57:18 52° 289° (WNW) 01:01:26 145.865
nSIGHT-1 20 Jan 00:53:25 00:56:30 49° 7° (N) 00:59:37 .
SPROUT 20 Jan 00:56:06 00:58:48 16° 270° (W) 01:01:32 437.525
UKube-1 20 Jan 00:57:41 01:01:48 47° 69° (ENE) 01:05:56 .
ISS 20 Jan 01:00:24 01:03:36 48° 5° (N) 01:06:47 437.550
QB50P2 20 Jan 01:05:52 01:09:42 32° 293° (WNW) 01:13:30 145.880/145.840
DX 1 20 Jan 01:06:08 01:10:27 89° 106° (ESE) 01:14:49 434.975-435.025
O/OREOS (USA 219) 20 Jan 01:08:14 01:12:45 86° 118° (ESE) 01:17:17 437.305
BUGSAT 1 20 Jan 01:09:24 01:13:34 52° 100° (E) 01:17:43 437.445
50 SAT 20 Jan 01:14:53 01:17:57 71° 258° (WSW) 01:21:03 437.505
NO-84 20 Jan 01:23:30 01:23:48 10° 230° (SW) 01:24:06 435.350 FM
EO-79 20 Jan 01:37:56 01:40:58 19° 299° (WNW) 01:43:59 145.935-145.965
DUCHIFAT 1 20 Jan 01:38:19 01:41:41 23° 297° (WNW) 01:45:03 145.980
ITUPSAT 1 20 Jan 01:41:26 01:45:25 27° 62° (ENE) 01:49:26 437.325
AO-91 20 Jan 01:50:21 01:54:39 88° 285° (WNW) 01:59:26 145.960
YUBILEINY 20 Jan 01:53:28 01:59:36 20° 307° (NW) 02:05:43 435.215
Gurwin Techsat 1B 20 Jan 01:56:32 02:01:51 65° 102° (ESE) 02:07:07 435.225
BEESAT 20 Jan 02:21:14 02:25:55 59° 71° (ENE) 02:30:38 436.000
Oscar 19 20 Jan 02:22:20 02:27:28 61° 290° (WNW) 02:32:32 437.125/150
CUBESAT XI-V 20 Jan 02:25:06 02:29:11 30° 65° (ENE) 02:33:15 437.345
MOZHAYETS 4 20 Jan 02:25:10 02:29:48 83° 256° (WSW) 02:34:30
nSIGHT-1 20 Jan 02:29:37 02:32:46 63° 207° (SSW) 02:35:55 .
UKube-1 20 Jan 02:34:52 02:38:04 20° 268° (W) 02:41:16 .
ISS 20 Jan 02:36:56 02:40:13 75° 205° (SSW) 02:43:30 437.550
AO-7 20 Jan 02:43:31 02:50:45 31° 94° (E) 02:57:53 .
BUGSAT 1 20 Jan 02:45:32 02:48:34 19° 298° (WNW) 02:51:37 437.445
DX 1 20 Jan 02:46:19 02:47:17 11° 273° (W) 02:48:14 434.975-435.025
O/OREOS (USA 219) 20 Jan 02:49:58 02:52:49 16° 316° (NW) 02:55:40 437.305
ITUPSAT 1 20 Jan 03:18:29 03:23:02 44° 261° (W) 03:27:39 437.325
ITAMSAT 1 20 Jan 03:25:33 03:30:14 33° 96° (E) 03:34:54 435.822/435.867
AO-91 20 Jan 03:28:43 03:30:37 13° 300° (WNW) 03:32:35 145.960
Gurwin Techsat 1B 20 Jan 03:37:18 03:41:21 23° 301° (WNW) 03:45:24 435.225
BEESAT 20 Jan 04:00:41 04:04:04 19° 269° (W) 04:07:29 436.000
CUBESAT XI-V 20 Jan 04:02:06 04:06:27 37° 263° (W) 04:10:48 437.345
DOVE 4 20 Jan 04:02:56 04:06:09 20° 92° (E) 04:09:27 437.250
Oscar 19 20 Jan 04:04:07 04:05:46 11° 309° (NW) 04:07:26 437.125/150
KKS-1 20 Jan 04:04:19 04:08:32 46° 69° (ENE) 04:12:47 437.445
MOZHAYETS 4 20 Jan 04:06:42 04:07:42 11° 275° (W) 04:08:42
nSIGHT-1 20 Jan 04:07:02 04:08:25 12° 224° (SW) 04:09:49 .
ISS 20 Jan 04:14:14 04:16:16 16° 223° (SW) 04:18:18 437.550
STARS 20 Jan 04:24:28 04:28:19 31° 65° (ENE) 04:32:11 437.465
AO-7 20 Jan 04:35:50 04:44:11 72° 295° (WNW) 04:52:27 .
STRAND 1 20 Jan 04:52:31 04:54:59 14° 53° (NE) 04:57:28 437.568
M-CUBED/EXP-1 PRIME 20 Jan 04:57:09 05:00:22 37° 104° (ESE) 05:03:26 437.505
XW-2D 20 Jan 05:04:25 05:05:52 12° 88° (E) 05:07:20 145.860 - 145.880
ITAMSAT 1 20 Jan 05:04:56 05:09:45 39° 295° (WNW) 05:14:34 435.822/435.867
XW-2B 20 Jan 05:21:03 05:23:38 17° 91° (E) 05:26:10 145.730 - 145.750
SO-50 20 Jan 05:29:16 05:33:15 32° 118° (ESE) 05:37:18 436.795
DOVE 4 20 Jan 05:39:57 05:44:04 47° 289° (WNW) 05:48:21 437.250
KKS-1 20 Jan 05:41:56 05:45:19 21° 267° (W) 05:48:43 437.445
LilacSat-2 20 Jan 05:46:44 05:50:16 36° 97° (E) 05:53:46 437.200
FO-29 20 Jan 05:49:17 05:54:17 24° 59° (ENE) 05:58:53 435.910
XW-2C 20 Jan 05:50:36 05:54:08 36° 97° (E) 05:57:37 145.795 - 145.815
CUBEBUG 2 20 Jan 05:56:23 05:57:49 11° 85° (E) 05:59:15 437.445
CUTE 1.7 + AOD 2 20 Jan 05:56:31 05:58:50 14° 89° (E) 06:01:07 437.475
HO-68 20 Jan 05:58:01 06:03:33 23° 90° (E) 06:09:02 435.675
RS-15 20 Jan 06:00:04 06:03:52 12° 90° (E) 06:07:37 29.354- 29.394
STARS 20 Jan 06:00:46 06:04:38 31° 264° (W) 06:08:32 437.465
